Temperature
18 18 18 18 18 18 18 18 18 18 17 17 18 18 18 18 18 18 17 18 18 18 18 18 18 18 18 18 18 18 18 18 18 18 18 18 18 18 18 18 18 18 18
17 17 18 18 17 17 17 17 17 17 17 17 17 17 17 17 17 17 17 17 17 18 18 17 17 18 18 18 18 18 18 18 18 18 18 18 18 18 18 18 18 18 18
17 17 18 18 17 17 17 17 17 17 17 17 17 17 17 17 17 17 17 17 17 17 17 17 17 17 17 17 17 18 18 18 18 17 17 18 18 18 18 18 18 18 18
17 17 17 17 17 17 17 17 17 17 17 17 17 17 17 17 17 17 17 17 17 17 17 17 17 17 17 17 17 17 17 17 17 17 17 17 17 18 18 18 18 18 18
17 17 17 17 17 17 17 17 17 17 17 17 17 17 17 17 17 17 17 17 17 17 17 17 17 17 17 17 17 17 17 17 17 17 17 17 17 17 18 18 18 18 18
17 17 17 17 17 17 17 17 17 16 16 17 17 16 16 17 16 16 16 17 17 17 17 17 17 17 17 17 17 17 17 17 17 17 17 17 17 17 17 17 18 18 18
17 17 17 17 17 17 17 16 16 16 16 16 16 16 16 16 16 16 16 17 17 17 17 17 17 17 17 17 17 17 17 17 17 17 17 17 17 17 17 17 17 18 17
17 17 17 17 17 17 17 16 16 16 16 16 16 16 16 16 16 16 16 16 16 17 17 17 17 17 17 17 17 17 17 17 17 17 17 17 17 17 17 17 17 17 17
18 18 17 17 17 17 17 17 16 16 16 16 16 16 16 16 16 16 16 16 16 16 16 16 17 17 17 17 16 16 17 17 17 17 17 17 17 17 17 17 17 17 17
18 18 17 17 17 17 17 17 16 16 16 16 16 16 16 16 16 16 16 16 16 16 16 16 16 16 16 16 16 16 16 16 16 16 16 17 17 17 17 17 17 17 17
18 18 18 18 17 17 17 17 16 16 16 16 16 16 16 16 16 16 16 16 16 16 16 16 16 16 16 16 16 16 16 16 16 16 17 17 16 16 16 16 16 16 16
19 18 18 18 18 17 17 17 17 16 16 16 16 16 16 16 16 16 16 16 16 16 16 16 16 16 16 16 16 16 16 16 16 16 16 16 16 16 16 16 16 16 16
19 19 18 18 18 18 17 17 17 16 16 16 16 16 16 16 16 16 16 16 16 16 16 16 16 16 16 16 16 16 16 16 16 16 16 16 16 16 16 16 16 16 16
19 19 18 18 18 18 17 17 17 17 16 16 16 16 16 16 16 16 16 16 16 16 16 16 16 16 16 16 16 16 16 16 16 16 16 16 16 16 16 15 15 15 15
19 19 19 18 18 18 18 17 17 17 17 16 16 16 16 16 16 16 16 16 16 16 16 16 16 16 16 16 16 16 16 16 15 15 15 15 15 15 15 15 15 15 15
19 19 19 18 18 18 18 17 17 17 17 17 16 16 16 16 16 16 16 16 16 16 16 16 16 16 16 15 15 15 15 15 15 15 15 15 15 15 15 15 15 15 15
19 19 18 18 18 18 18 17 17 17 17 16 16 16 16 16 16 16 16 16 16 16 16 15 15 15 15 15 15 15 15 15 15 15 15 15 15 15 15 15 15 15 15
20 19 19 18 18 18 17 17 17 17 17 16 16 16 16 16 16 16 16 16 16 16 15 15 15 15 15 15 15 15 15 15 15 15 15 15 15 14 14 15 15 15 15
20 19 19 18 18 18 17 17 17 17 17 16 16 16 16 16 16 16 16 16 16 15 15 15 15 15 15 15 15 15 15 15 15 15 14 14 14 14 14 14 14 14 14
20 19 19 18 18 17 17 17 17 16 16 16 16 16 16 16 16 16 15 15 15 15 15 15 15 15 15 15 15 15 15 15 15 14 14 14 14 14 14 14 14 14 14
20 19 19 18 18 17 17 17 17 16 16 16 16 16 16 16 16 16 15 15 15 15 15 15 15 15 15 15 15 15 15 15 15 14 14 14 14 14 14 14 14 14 14
19 19 19 18 18 17 17 17 16 16 16 16 16 16 16 16 16 15 15 15 15 15 15 15 15 15 15 15 15 15 14 14 14 14 14 14 14 14 13 13 13 14 14
20 19 19 18 18 17 17 17 16 16 16 16 16 16 16 16 15 15 15 15 15 15 15 15 15 15 15 15 15 15 15 14 14 14 14 14 14 14 13 13 13 13 14
19 19 19 18 18 17 17 16 16 16 16 16 16 16 16 16 15 15 15 15 15 15 15 15 15 15 15 15 15 15 15 15 15 14 14 14 14 13 13 13 13 13 13
19 19 19 18 18 17 17 16 16 16 16 16 16 16 16 16 15 15 15 15 15 15 15 15 15 15 15 15 15 15 15 15 15 14 14 14 13 13 13 13 13 13 13
19 19 18 18 17 17 17 16 16 16 16 16 16 16 16 15 15 15 15 15 15 15 15 15 15 15 15 15 15 15 15 15 15 15 14 14 13 13 13 13 13 13 13
Wind_Speed
6 10 11 11 11 11 11 11 11 10 10 10 10 10 11 11 11 11 11 11 11 11 11 11 11 11 11 11 11 11 10 10 10 10 10 11 11 10 10 9 9 9 10
8 11 12 11 11 11 12 11 11 11 11 11 10 10 10 11 11 11 11 11 12 12 12 11 11 11 11 10 10 10 9 8 7 8 9 10 10 10 10 10 11 9 9
9 10 11 11 11 11 12 11 11 11 11 11 11 10 10 10 11 11 11 11 11 12 11 11 10 10 10 10 10 9 8 7 5 5 6 8 9 10 11 10 10 10 9
9 10 10 10 10 10 11 11 11 11 11 11 11 10 10 10 11 10 10 10 11 11 11 10 10 10 10 10 10 9 8 6 5 5 6 8 10 11 10 11 10 10 10
9 11 10 10 10 10 10 10 10 10 10 11 10 10 10 10 10 10 10 10 10 10 11 10 10 10 10 10 10 9 8 7 7 7 9 12 11 11 11 11 11 10 10
9 11 10 10 10 9 9 9 10 10 10 10 10 10 10 10 9 9 10 10 11 11 10 11 11 11 10 10 10 9 8 8 8 8 10 12 11 11 11 11 10 10 10
8 11 11 10 10 9 9 9 10 10 10 10 10 10 10 10 10 9 9 10 10 10 10 10 11 11 10 10 9 8 8 8 7 8 10 12 11 11 11 10 10 10 9
8 10 12 11 10 9 10 10 9 10 10 9 9 9 10 9 9 9 9 10 10 10 10 9 10 10 10 9 8 7 8 8 8 9 10 11 11 11 10 10 10 9 9
6 8 10 11 10 11 11 10 9 9 8 8 8 8 8 9 9 9 9 10 10 10 9 9 9 9 9 8 7 7 7 8 8 7 10 10 12 11 11 10 9 9 9
6 6 6 8 11 11 11 10 9 8 7 7 7 7 7 8 9 9 9 10 10 9 9 9 8 8 7 7 6 5 6 7 8 9 9 11 12 11 11 10 9 9 9
6 5 5 5 7 10 11 10 9 9 7 7 6 5 6 6 7 8 9 9 9 8 7 7 6 7 6 4 3 4 5 6 8 9 10 12 12 12 11 10 9 9 9
5 5 5 5 6 8 8 8 7 7 7 5 6 5 5 6 8 8 9 8 8 6 5 4 4 4 3 3 3 3 5 7 9 10 11 12 12 11 11 10 9 9 9
5 5 5 5 6 7 5 6 5 5 5 5 5 6 6 6 6 6 6 6 5 4 3 3 2 2 3 4 5 5 7 8 10 11 11 12 11 11 11 11 10 10 10
6 5 5 4 5 6 6 4 4 4 4 3 4 6 5 3 2 3 3 4 4 4 3 3 2 4 4 6 7 7 8 8 10 10 11 13 12 11 12 12 11 11 10
6 5 6 5 6 6 5 2 4 4 4 5 4 5 6 3 2 2 2 3 4 4 3 3 4 5 5 7 7 8 7 8 9 10 10 13 13 13 12 12 12 11 10
6 6 6 5 5 5 4 3 4 5 5 5 4 4 6 4 3 3 3 4 3 3 4 4 5 4 4 5 5 7 6 7 8 10 10 10 12 13 13 13 12 12 11
6 7 6 4 5 5 6 5 4 4 5 4 4 4 5 5 4 4 3 3 3 5 5 5 5 4 4 4 5 5 6 7 7 9 9 9 10 11 12 13 13 13 13
6 7 6 5 5 6 5 4 3 4 5 4 4 4 4 6 7 5 3 2 4 5 4 3 3 3 4 4 4 3 4 5 6 7 8 9 8 8 10 12 13 13 13
5 6 6 5 5 6 5 4 3 4 4 4 4 4 5 6 7 6 3 2 5 3 3 3 4 3 3 4 3 3 3 3 4 6 6 8 8 8 8 10 11 12 12
4 5 6 5 5 6 3 3 3 3 2 3 4 4 5 5 7 6 3 3 5 3 3 3 3 3 2 2 4 4 3 3 3 4 4 6 8 9 9 9 8 9 11
4 5 7 5 5 5 3 2 3 2 2 2 2 4 4 4 5 4 3 4 4 3 2 3 2 3 2 2 3 2 3 3 4 3 3 4 5 7 8 9 8 7 8
5 3 6 6 5 6 3 2 3 2 2 3 2 2 2 3 4 4 3 2 3 3 2 2 2 1 1 1 1 2 1 2 3 3 3 3 4 6 6 8 8 8 8
5 4 5 6 6 6 5 3 3 3 2 2 1 1 2 3 3 3 3 3 2 2 2 1 2 2 1 1 1 1 2 1 1 2 2 3 4 4 4 6 7 9 9
5 4 5 6 6 6 5 3 3 2 1 1 1 2 2 3 3 3 2 2 2 2 2 1 2 1 1 0 1 1 1 3 2 1 1 3 3 4 3 4 6 8 9
5 4 4 6 6 6 4 4 2 2 1 1 1 2 2 2 2 3 2 1 1 1 2 1 2 1 1 0 1 1 2 1 1 2 1 1 2 2 3 3 5 6 8
6 5 4 5 6 5 3 4 3 2 2 2 2 2 1 2 1 2 2 1 1 1 1 1 1 1 1 1 0 0 1 1 1 2 2 2 2 1 2 3 4 5 7
Wind_Direction
76 76 69 70 68 66 66 68 69 73 77 78 76 72 69 68 71 75 74 75 74 73 72 73 75 77 75 75 76 76 77 81 82 83 83 80 78 76 72 66 70 73 72
90 86 79 73 72 70 70 71 72 72 75 78 79 74 70 70 72 74 75 77 74 71 68 69 76 77 75 75 78 79 79 80 83 85 86 82 80 78 75 70 71 73 72
90 91 86 79 77 73 71 73 75 76 76 76 78 78 74 73 75 74 76 79 78 74 72 70 71 73 74 74 76 75 76 75 68 75 90 95 86 77 75 72 70 69 68
91 87 83 83 80 76 74 74 76 79 81 81 78 79 80 77 78 79 78 80 79 80 78 75 73 72 72 72 72 71 67 60 53 55 72 81 80 79 76 72 69 64 62
88 89 88 87 83 79 77 77 77 79 80 83 83 80 81 81 79 78 78 79 80 80 80 81 78 74 70 68 67 64 55 47 49 61 72 76 74 77 75 70 66 63 61
94 98 98 93 88 85 83 81 79 80 86 84 85 82 85 85 81 79 78 78 78 78 79 83 82 79 73 68 63 54 45 41 49 65 76 81 78 75 72 67 64 61 57
98 103 107 103 97 92 91 89 86 84 89 87 86 85 86 89 88 83 83 83 81 82 82 83 83 80 76 69 58 47 35 33 61 73 79 81 81 78 73 67 63 58 56
106 112 112 110 105 101 100 98 95 93 94 93 91 90 89 95 95 89 87 87 86 86 87 86 85 82 75 69 60 45 33 32 59 75 82 83 82 78 73 69 63 57 57
101 112 124 130 122 113 107 107 108 104 105 104 102 100 99 101 101 95 97 97 93 90 92 92 89 85 80 75 67 51 39 36 51 64 78 81 82 78 74 71 66 61 59
104 105 117 130 134 133 127 121 121 122 124 121 119 119 117 114 109 105 100 100 99 96 96 97 96 92 86 78 67 47 36 42 60 63 75 81 79 76 75 73 69 65 63
106 112 115 125 126 127 129 132 143 142 140 139 142 140 138 132 120 109 104 108 105 103 103 104 107 105 102 99 78 45 38 61 69 70 73 78 76 72 71 69 69 65 64
117 112 115 120 119 115 113 127 139 132 141 141 128 134 130 112 111 110 117 119 117 115 118 123 125 120 121 121 101 75 60 65 68 70 72 75 73 67 65 65 67 69 67
106 93 95 98 106 111 109 109 104 106 114 103 105 105 104 110 120 128 140 142 140 129 115 115 122 108 96 94 92 85 75 67 69 70 71 73 70 65 63 65 68 69 67
97 96 93 96 103 102 103 109 120 110 101 92 79 97 93 87 88 104 117 130 125 104 92 88 87 77 74 80 76 74 73 76 80 80 73 71 69 67 64 66 67 67 66
103 105 93 86 90 98 99 118 112 105 102 103 80 82 98 97 98 98 90 91 93 99 93 80 75 67 56 61 67 70 64 72 85 86 80 73 71 66 65 64 65 65 63
117 101 87 82 89 100 109 104 95 104 100 93 82 88 96 96 96 82 80 78 75 81 90 96 95 81 69 65 57 61 64 71 84 97 98 83 73 69 65 62 61 62 63
120 110 102 91 86 86 80 74 82 94 101 88 74 65 98 98 89 81 73 76 81 76 77 84 91 91 92 84 76 65 58 57 65 83 92 96 85 73 71 67 62 61 63
113 107 103 96 89 82 82 85 79 81 82 79 80 59 70 87 87 82 72 64 79 79 82 83 84 78 79 76 73 71 68 63 56 70 79 85 89 84 76 72 67 60 60
112 113 116 105 97 88 81 85 72 80 83 82 74 63 55 67 86 85 74 81 84 77 67 74 72 75 83 83 82 79 75 69 56 61 66 75 81 87 86 78 69 62 58
113 115 109 107 106 100 82 79 74 59 63 77 71 72 59 58 77 87 79 80 83 73 71 76 87 86 94 106 92 81 87 92 72 56 56 66 69 74 75 77 77 69 61
130 127 124 134 116 106 92 90 93 84 69 69 72 80 85 84 89 87 74 66 69 69 78 95 97 92 91 107 96 73 57 75 89 77 66 66 64 70 70 70 67 73 67
140 137 129 122 114 113 110 100 107 107 94 88 79 91 87 94 97 112 101 90 88 81 61 77 100 88 90 121 114 110 80 44 41 72 77 81 72 69 63 63 62 64 71
129 133 125 124 120 114 103 75 79 77 65 81 108 92 69 83 75 79 96 97 104 114 108 108 104 107 116 311 21 102 121 122 89 43 76 86 79 70 62 61 59 65 70
140 135 127 122 113 104 103 99 110 113 112 137 143 146 146 120 112 102 93 96 101 105 123 127 106 77 98 336 335 2 75 124 135 120 39 75 81 78 74 65 59 61 67
128 114 107 108 108 105 112 118 108 103 129 127 113 122 116 107 115 123 113 99 79 107 118 102 105 96 105 69 38 32 37 46 108 133 136 115 70 69 82 84 73 70 66
123 113 106 112 111 117 133 138 149 148 156 148 139 130 118 130 134 132 149 174 132 101 102 128 143 173 161 94 38 49 125 118 113 108 134 140 123 109 99 90 88 88 80
Height
1518 1516 1515 1515 1514 1514 1514 1515 1515 1515 1516 1516 1517 1518 1518 1519 1519 1519 1520 1520 1521 1521 1522 1522 1523 1523 1524 1524 1525 1526 1527 1528 1529 1530 1530 1531 1532 1532 1533 1533 1533 1533 1534
1518 1517 1516 1516 1515 1515 1515 1516 1516 1516 1517 1517 1518 1519 1519 1520 1520 1520 1521 1521 1522 1522 1523 1524 1524 1525 1525 1526 1527 1527 1528 1529 1530 1531 1532 1532 1533 1533 1534 1534 1534 1534 1534
1519 1518 1517 1517 1517 1516 1516 1517 1517 1517 1518 1518 1519 1520 1520 1521 1521 1522 1522 1523 1523 1524 1524 1525 1526 1526 1527 1527 1528 1529 1530 1531 1531 1532 1533 1533 1534 1534 1535 1535 1535 1535 1535
1520 1519 1518 1518 1518 1518 1518 1518 1518 1518 1519 1520 1520 1521 1521 1522 1522 1523 1523 1524 1524 1525 1525 1526 1527 1528 1528 1529 1529 1530 1531 1532 1533 1533 1534 1534 1535 1535 1535 1536 1536 1536 1536
1521 1519 1519 1519 1519 1519 1519 1519 1519 1519 1520 1521 1521 1522 1522 1523 1524 1524 1525 1525 1525 1526 1527 1527 1528 1529 1529 1530 1531 1532 1533 1533 1534 1534 1535 1535 1536 1536 1536 1537 1536 1536 1536
1521 1520 1520 1520 1520 1520 1520 1520 1521 1521 1521 1522 1522 1523 1523 1524 1525 1525 1526 1526 1527 1527 1528 1529 1530 1530 1531 1531 1532 1533 1534 1534 1535 1535 1536 1536 1536 1537 1537 1537 1537 1537 1537
1523 1522 1522 1522 1521 1521 1521 1521 1522 1522 1523 1523 1524 1524 1525 1525 1526 1526 1527 1527 1528 1529 1530 1530 1531 1532 1532 1533 1534 1534 1535 1536 1536 1536 1537 1537 1537 1537 1537 1537 1538 1538 1537
1524 1523 1523 1523 1522 1522 1522 1523 1523 1524 1524 1525 1525 1525 1526 1527 1527 1528 1528 1529 1529 1530 1531 1532 1533 1533 1534 1534 1535 1535 1536 1536 1537 1537 1537 1537 1538 1538 1538 1538 1538 1538 1538
1526 1525 1524 1524 1524 1524 1524 1525 1525 1526 1526 1526 1527 1527 1528 1528 1529 1529 1530 1530 1531 1531 1532 1533 1534 1534 1535 1535 1536 1537 1537 1537 1538 1538 1538 1538 1539 1539 1538 1538 1538 1538 1538
1527 1527 1527 1526 1526 1526 1526 1527 1527 1527 1528 1528 1529 1529 1530 1530 1531 1531 1532 1532 1532 1533 1534 1534 1535 1536 1536 1537 1537 1538 1538 1539 1539 1539 1539 1539 1539 1539 1539 1539 1538 1538 1538
1529 1529 1529 1528 1528 1528 1528 1529 1529 1530 1530 1530 1531 1532 1532 1532 1533 1533 1534 1534 1534 1535 1535 1536 1537 1538 1538 1538 1539 1539 1540 1540 1540 1540 1540 1540 1540 1540 1539 1539 1539 1539 1538
1530 1531 1530 1530 1530 1531 1531 1531 1531 1532 1532 1533 1533 1534 1534 1535 1535 1535 1536 1536 1536 1536 1537 1537 1538 1539 1539 1540 1540 1541 1541 1541 1541 1541 1541 1541 1541 1541 1540 1540 1539 1539 1539
1532 1532 1532 1532 1532 1532 1532 1533 1534 1534 1534 1535 1535 1536 1536 1537 1537 1537 1537 1538 1538 1538 1538 1539 1540 1540 1541 1541 1542 1542 1542 1542 1542 1542 1542 1542 1542 1541 1541 1540 1540 1539 1539
1533 1533 1533 1533 1533 1534 1534 1534 1535 1536 1536 1536 1537 1537 1538 1538 1538 1539 1539 1539 1540 1540 1540 1540 1541 1541 1542 1543 1543 1543 1543 1543 1543 1543 1543 1542 1542 1542 1541 1541 1540 1540 1539
1533 1534 1535 1535 1535 1535 1535 1536 1536 1537 1538 1538 1538 1539 1539 1539 1540 1540 1540 1541 1541 1541 1541 1542 1542 1543 1543 1543 1544 1544 1544 1544 1544 1544 1543 1543 1543 1543 1542 1542 1541 1541 1540
1534 1535 1535 1536 1536 1536 1536 1537 1538 1539 1539 1540 1540 1540 1540 1541 1541 1541 1541 1542 1542 1542 1542 1543 1543 1544 1544 1544 1545 1545 1545 1545 1545 1545 1544 1544 1544 1543 1543 1543 1542 1541 1541
1535 1535 1536 1537 1537 1537 1538 1538 1539 1540 1540 1541 1541 1542 1542 1542 1542 1542 1542 1543 1543 1543 1543 1544 1544 1545 1545 1545 1546 1546 1546 1546 1546 1546 1545 1545 1544 1544 1544 1544 1543 1542 1542
1535 1536 1537 1538 1538 1538 1539 1539 1540 1541 1541 1542 1542 1543 1543 1543 1543 1543 1543 1544 1544 1544 1544 1545 1545 1546 1546 1546 1546 1547 1547 1547 1547 1547 1547 1546 1545 1545 1545 1545 1544 1543 1542
1536 1537 1537 1538 1539 1539 1540 1540 1541 1542 1542 1543 1543 1544 1544 1544 1544 1544 1544 1544 1545 1545 1545 1546 1546 1547 1547 1547 1547 1548 1548 1548 1548 1548 1548 1547 1547 1546 1546 1545 1545 1544 1543
1536 1537 1538 1538 1540 1540 1541 1541 1542 1542 1543 1544 1544 1544 1545 1545 1545 1545 1545 1545 1546 1546 1546 1546 1547 1547 1548 1548 1548 1549 1549 1549 1549 1549 1549 1549 1548 1547 1547 1546 1545 1545 1544
1536 1537 1538 1539 1540 1540 1541 1542 1542 1543 1543 1544 1545 1545 1546 1546 1546 1546 1546 1546 1546 1546 1547 1547 1547 1548 1548 1549 1549 1549 1550 1550 1550 1550 1550 1549 1549 1549 1548 1547 1546 1545 1544
1536 1537 1538 1539 1540 1541 1541 1542 1543 1543 1544 1544 1545 1546 1546 1547 1547 1547 1547 1547 1547 1547 1547 1547 1548 1549 1549 1550 1550 1550 1551 1552 1551 1551 1551 1550 1550 1550 1549 1548 1548 1547 1546
1535 1537 1538 1539 1540 1541 1541 1542 1543 1543 1544 1544 1545 1546 1546 1547 1547 1547 1547 1547 1547 1548 1548 1548 1549 1549 1549 1550 1550 1551 1551 1551 1552 1553 1552 1552 1551 1551 1550 1549 1549 1548 1547
1535 1537 1538 1539 1540 1541 1541 1542 1543 1544 1544 1545 1545 1546 1546 1547 1547 1548 1548 1548 1548 1548 1548 1549 1549 1549 1550 1550 1550 1550 1551 1551 1552 1553 1553 1553 1552 1552 1551 1551 1550 1549 1548
1534 1536 1538 1538 1539 1540 1541 1542 1543 1544 1544 1545 1545 1546 1546 1547 1547 1548 1548 1548 1548 1549 1549 1549 1549 1549 1550 1550 1550 1550 1550 1551 1551 1552 1552 1553 1553 1553 1552 1551 1550 1549 1549
1534 1536 1537 1538 1539 1540 1541 1542 1543 1544 1544 1545 1545 1546 1546 1547 1547 1548 1548 1548 1548 1549 1549 1549 1549 1549 1549 1550 1550 1550 1550 1551 1551 1551 1551 1552 1552 1553 1552 1552 1551 1550 1549